Weather History for Gilze-Rijen, Netherlands

Change the Weather History Date:

Saturday, May 11, 2013

  Actual Average Record
Temperature  
Mean Temperature 52 °F -  
Max Temperature 59 °F 65 °F 87 °F (1998)
Min Temperature 46 °F 47 °F 32 °F (2005)
Degree Days  
Heating Degree Days 12    
Growing Degree Days 2 (Base 50)    
Moisture  
Dew Point 44 °F    
Average Humidity 75    
Maximum Humidity 93    
Minimum Humidity 54    
Precipitation  
Precipitation 0.00 in - - ()
Sea Level Pressure  
Sea Level Pressure 29.90 in    
Wind  
Wind Speed 9 mph ()    
Max Wind Speed 16 mph    
Max Gust Speed 28 mph    
Visibility 6.1 miles    
Events Rain    
Averages and records for this station are not official NWS values.
T = Trace of Precipitation, MM = Missing Value Source: Averaged Metar Reports

Daily Weather History Graph

Daily Weather History Graph

Search for Another Location

Airport:

Trip Planner

Search our weather history database for the weather conditions in past years. The results will help you decide how hot, cold, wet, or windy it might be!

Date:

Astronomy

May. 11, 2013 Rise Set
Actual Time 5:54 AM CEST 9:19 PM CEST
Civil Twilight 5:13 AM CEST 10:00 PM CEST
Nautical Twilight 4:19 AM CEST 10:55 PM CEST
Astronomical Twilight 3:03 AM CEST 12:13 AM CEST
Moon 6:47 AM CEST (5/11) 10:51 PM CEST (5/11)
Length of Visible Light 16h 46m
Length of Day
15h 25m
New Moon, 2% of the Moon is Illuminated
May 11
New Moon
May 18
First Quarter
May 25
Full
May 31
Last Quarter
Jun 8
New

Hourly Weather History & Observations

Time (CEST) Temp. Windchill Dew Point Humidity Pressure Visibility Wind Dir Wind Speed Gust Speed Precip Events Conditions
12:25 AM 50.0 °F - 41.0 °F 71% 30.01 in 6.2 mi SW 5.8 mph - N/A   Unknown
12:55 AM 48.2 °F - 41.0 °F 76% 30.01 in 6.2 mi SSW 5.8 mph - N/A   Partly Cloudy
1:25 AM 48.2 °F - 41.0 °F 76% 29.98 in 6.2 mi SSW 6.9 mph - N/A   Unknown
1:55 AM 48.2 °F - 41.0 °F 76% 29.98 in 6.2 mi SSW 8.1 mph - N/A   Mostly Cloudy
2:25 AM 48.2 °F - 41.0 °F 76% 29.98 in 6.2 mi SSW 8.1 mph - N/A   Mostly Cloudy
2:55 AM 48.2 °F - 41.0 °F 76% 29.98 in 6.2 mi SSW 9.2 mph - N/A   Partly Cloudy
3:25 AM 48.2 °F - 41.0 °F 76% 29.98 in 6.2 mi SSW 8.1 mph - N/A   Overcast
3:55 AM 48.2 °F - 41.0 °F 76% 29.95 in 6.2 mi SSW 9.2 mph - N/A   Overcast
4:25 AM 48.2 °F - 41.0 °F 76% 29.95 in 6.2 mi SSW 9.2 mph - N/A   Mostly Cloudy
4:55 AM 48.2 °F - 41.0 °F 76% 29.95 in 6.2 mi SSW 8.1 mph - N/A   Overcast
5:25 AM 50.0 °F - 42.8 °F 76% 29.95 in 6.2 mi SSW 5.8 mph - N/A   Overcast
5:55 AM 50.0 °F - 42.8 °F 76% 29.92 in 6.2 mi SSW 5.8 mph - N/A   Overcast
6:25 AM 50.0 °F - 42.8 °F 76% 29.92 in 6.2 mi SSW 8.1 mph - N/A   Overcast
6:55 AM 50.0 °F - 42.8 °F 76% 29.92 in 6.2 mi SSW 9.2 mph - N/A   Overcast
7:25 AM 51.8 °F - 42.8 °F 71% 29.92 in 6.2 mi SSW 9.2 mph - N/A   Mostly Cloudy
7:55 AM 51.8 °F - 44.6 °F 76% 29.92 in 6.2 mi South 9.2 mph - N/A   Mostly Cloudy
8:25 AM 51.8 °F - 44.6 °F 76% 29.92 in 6.2 mi South 8.1 mph - N/A   Overcast
8:55 AM 51.8 °F - 44.6 °F 76% 29.92 in 6.2 mi SSW 9.2 mph - N/A   Overcast
9:01 AM 51.8 °F - 44.6 °F 76% 29.92 in 6.2 mi SSW 10.4 mph - N/A   Overcast
9:25 AM 51.8 °F - 44.6 °F 76% 29.92 in 6.2 mi SSW 9.2 mph - N/A   Overcast
9:33 AM 51.8 °F - 44.6 °F 76% 29.92 in 6.2 mi SSW 9.2 mph - N/A   Overcast
9:55 AM 53.6 °F - 44.6 °F 72% 29.92 in 6.2 mi SW 6.9 mph - N/A   Overcast
10:13 AM 51.8 °F - 44.6 °F 76% 29.92 in 4.3 mi SW 6.9 mph - N/A Rain Light Rain
10:25 AM 50.0 °F - 44.6 °F 82% 29.92 in 3.7 mi WSW 10.4 mph - N/A Rain Rain
10:30 AM 50.0 °F - 44.6 °F 82% 29.92 in 6.2 mi West 9.2 mph - N/A   Overcast
10:43 AM 50.0 °F - 44.6 °F 82% 29.92 in 6.2 mi West 9.2 mph - N/A   Overcast
10:55 AM 50.0 °F - 42.8 °F 76% 29.92 in 6.2 mi West 10.4 mph - N/A Rain Light Rain
11:03 AM 50.0 °F - 42.8 °F 76% 29.92 in 6.2 mi West 11.5 mph - N/A Rain Light Rain Showers
11:12 AM 48.2 °F - 42.8 °F 82% 29.92 in 6.2 mi West 10.4 mph - N/A Rain Light Rain
11:25 AM 48.2 °F - 42.8 °F 82% 29.95 in 6.2 mi WSW 10.4 mph - N/A Rain Light Rain Showers
11:33 AM 48.2 °F - 42.8 °F 82% 29.95 in 6.2 mi WSW 10.4 mph - N/A Rain Light Rain
11:38 AM 48.2 °F - 42.8 °F 82% 29.95 in 6.2 mi WSW 9.2 mph - N/A Rain Light Rain
11:55 AM 46.4 °F 41.9 °F 44.6 °F 93% 29.95 in 6.2 mi SW 9.2 mph - N/A Rain Light Rain Showers
12:25 PM 48.2 °F - 44.6 °F 87% 29.92 in 6.2 mi South 6.9 mph - N/A   Mostly Cloudy
12:55 PM 50.0 °F - 46.4 °F 87% 29.92 in 6.2 mi SSW 12.7 mph - N/A   Mostly Cloudy
1:01 PM 51.8 °F - 46.4 °F 82% 29.92 in 6.2 mi SW 11.5 mph - N/A   Mostly Cloudy
1:25 PM 51.8 °F - 46.4 °F 82% 29.89 in 6.2 mi SW 10.4 mph - N/A   Mostly Cloudy
1:48 PM 53.6 °F - 46.4 °F 77% 29.89 in 6.2 mi SW 10.4 mph - N/A   Scattered Clouds
1:55 PM 53.6 °F - 44.6 °F 72% 29.89 in 6.2 mi SW 10.4 mph - N/A   Partly Cloudy
2:25 PM 55.4 °F - 41.0 °F 58% 29.89 in 6.2 mi SW 11.5 mph - N/A   Mostly Cloudy
2:55 PM 59.0 °F - 44.6 °F 59% 29.89 in 6.2 mi SW 12.7 mph - N/A   Mostly Cloudy
3:25 PM 55.4 °F - 39.2 °F 54% 29.86 in 6.2 mi SW 12.7 mph - N/A   Overcast
3:55 PM 55.4 °F - 41.0 °F 58% 29.89 in 6.2 mi WSW 16.1 mph 27.6 mph N/A   Mostly Cloudy
4:25 PM 55.4 °F - 42.8 °F 63% 29.86 in 6.2 mi SW 15.0 mph - N/A   Mostly Cloudy
4:47 PM 51.8 °F - 44.6 °F 76% 29.86 in 3.7 mi SW 12.7 mph 25.3 mph N/A Rain Light Rain
4:55 PM 51.8 °F - 46.4 °F 82% 29.89 in 6.2 mi SW 11.5 mph - N/A Rain Rain Showers
4:59 PM 51.8 °F - 46.4 °F 82% 29.89 in 6.2 mi SW 11.5 mph - N/A Rain Light Rain
5:08 PM 53.6 °F - 48.2 °F 82% 29.86 in 6.2 mi SW 10.4 mph - N/A Rain Light Rain
5:13 PM 53.6 °F - 48.2 °F 82% 29.86 in 6.2 mi SW 11.5 mph - N/A   Mostly Cloudy
5:25 PM 53.6 °F - 46.4 °F 77% 29.86 in 6.2 mi SW 11.5 mph - N/A   Mostly Cloudy
5:36 PM 53.6 °F - 46.4 °F 77% 29.86 in 6.2 mi SW 13.8 mph - N/A   Mostly Cloudy
5:40 PM 53.6 °F - 46.4 °F 77% 29.86 in 6.2 mi SSW 13.8 mph - N/A   Mostly Cloudy
5:47 PM 53.6 °F - 46.4 °F 77% 29.86 in 6.2 mi SW 13.8 mph - N/A   Mostly Cloudy
5:55 PM 53.6 °F - 48.2 °F 82% 29.86 in 6.2 mi SW 12.7 mph - N/A   Overcast
5:56 PM 55.4 °F - 48.2 °F 77% 29.86 in 6.2 mi SW 11.5 mph - N/A   Mostly Cloudy
6:25 PM 55.4 °F - 46.4 °F 72% 29.86 in 6.2 mi SW 13.8 mph - N/A   Mostly Cloudy
6:40 PM 55.4 °F - 46.4 °F 72% 29.86 in 6.2 mi SW 11.5 mph - N/A   Mostly Cloudy
6:55 PM 55.4 °F - 46.4 °F 72% 29.83 in 6.2 mi SW 12.7 mph - N/A   Mostly Cloudy
7:25 PM 55.4 °F - 46.4 °F 72% 29.86 in 6.2 mi SW 13.8 mph - N/A   Overcast
7:55 PM 53.6 °F - 46.4 °F 77% 29.86 in 6.2 mi SW 10.4 mph - N/A   Mostly Cloudy
8:25 PM 53.6 °F - 46.4 °F 77% 29.86 in 6.2 mi SW 10.4 mph - N/A   Mostly Cloudy
8:55 PM 53.6 °F - 46.4 °F 77% 29.83 in 6.2 mi SW 9.2 mph - N/A   Mostly Cloudy
9:25 PM 53.6 °F - 44.6 °F 72% 29.83 in 6.2 mi SW 10.4 mph 24.2 mph N/A   Overcast
9:55 PM 53.6 °F - 44.6 °F 72% 29.83 in 6.2 mi SW 12.7 mph - N/A   Mostly Cloudy
10:25 PM 53.6 °F - 42.8 °F 67% 29.86 in 6.2 mi SW 15.0 mph 26.5 mph N/A   Mostly Cloudy
10:55 PM 53.6 °F - 42.8 °F 67% 29.86 in 6.2 mi SW 11.5 mph 23.0 mph N/A   Overcast
11:25 PM 51.8 °F - 44.6 °F 76% 29.86 in 6.2 mi WSW 12.7 mph - N/A Rain Light Rain
11:43 PM 51.8 °F - 42.8 °F 71% 29.86 in 6.2 mi WSW 15.0 mph - N/A Rain Light Rain
11:48 PM 51.8 °F - 42.8 °F 71% 29.86 in 6.2 mi WSW 11.5 mph - N/A   Light Drizzle
11:55 PM 51.8 °F - 42.8 °F 71% 29.86 in 6.2 mi WSW 12.7 mph - N/A   Mostly Cloudy
11:59 PM 51.8 °F - 42.8 °F 71% 29.86 in 6.2 mi WSW 11.5 mph - N/A   Mostly Cloudy